Regional Weather Roundup
Issued by NWS

Home | Current Version | Previous Version | Text Only | Print | Product List | Glossary Off
Versions: 1 2 3 4 5 6 7 8 9 10 11 12 13 14 15 16 17 18 19 20 21 22 23 24 25 26 27 28 29 30 31 32 33 34 35 36 37 38 39 40 41 42 43 44 45 46 47 48 49 50

000
ASUS45 KBOU 130110
RWRCO

WEATHER ROUNDUP FOR COLORADO
NATIONAL WEATHER SERVICE DENVER/BOULDER CO
700 PM MDT SAT JUL 12 2014

NOTE: "FAIR" INDICATES FEW OR NO CLOUDS BELOW 12000 FEET WITH NO
SIGNIFICANT WEATHER AND/OR OBSTRUCTIONS TO VISIBILITY.

COZ001>005-013-030-031-130200-
...NORTHWEST COLORADO...

CITY           SKY/WX    TMP DP  RH WIND       PRES   REMARKS
CRAIG          MOSUNNY   78  50  37 N10       30.25S
HAYDEN         SUNNY     81  48  32 N6        30.28S
MEEKER         MOSUNNY   84  47  27 NE10      30.25S
MOUNT WERNER   NOT AVBL
STEAMBOAT SPGS SUNNY     79  51  36 W7        30.30F
WALDEN         MOSUNNY   70  46  43 NE5       30.44R
$$

COZ006>008-011-130200-
...WEST CENTRAL VALLEYS...

CITY           SKY/WX    TMP DP  RH WIND       PRES   REMARKS
GRAND JUNCTION MOSUNNY   92  48  22 NE14      30.08S
MONTROSE       MOSUNNY   91  42  18 NW9       30.16S
EAGLE          PTSUNNY   81  50  34 CALM      30.30F
RIFLE          PTSUNNY   86  53  32 S8        30.15F
DELTA          MOSUNNY   95  46  18 N9        30.11R
NUCLA          MOSUNNY   88  43  20 E10       30.20F
$$

COZ017>023-064>068-130200-
...SOUTHWEST COLORADO...

CITY           SKY/WX    TMP DP  RH WIND       PRES   REMARKS
DURANGO        CLOUDY    69  52  54 N12       30.27F
CORTEZ         SUNNY     80  51  36 NE12      30.19F
PAGOSA SPRINGS CLOUDY    69  48  46 E5        30.38S
TELLURIDE      PTSUNNY   64  50  59 CALM      30.49S
WOLF CREEK PAS NOT AVBL
$$

COZ009-010-012-014-032>034-037-058>063-130200-
...CENTRAL COLORADO...

CITY           SKY/WX    TMP DP  RH WIND       PRES   REMARKS
ASPEN          PTSUNNY   76  50  40 S14G21    30.37R THUNDER
BUENA VISTA    RAIN      61  52  72 SW8G18    30.47R
COPPER MTN     CLOUDY    59  41  51 S7        30.74S THUNDER
BERTHOUD PASS  CLOUDY    45  32  61 CALM      30.79S VSB 1/4
COTTONWOOD PAS CLOUDY    57  48  72 CALM      30.61R
GUNNISON       CLOUDY    68  50  52 E16       30.40R
KREMMLING      LGT RAIN  72  52  49 E9        30.37S
LEADVILLE      RAIN      49  47  93 SE10      30.59R FOG
MONARCH PASS   LGT RAIN  46  43  87 CALM      30.83F
SALIDA         CLOUDY    69  49  47 E5G21     30.49R
SUNLIGHT       MOSUNNY   63  50  63 CALM      30.64S
WILKERSON PASS CLOUDY    46  45  93 S10       30.73R THUNDER
$$

COZ069>075-130200-
...SAN LUIS VALLEY/SANGRE DE CRISTO MOUNTAINS...

CITY           SKY/WX    TMP DP  RH WIND       PRES   REMARKS
ALAMOSA        CLOUDY    71  47  42 N15       30.36R
LA VETA PASS   TSTM      46  45  93 N5        30.60F
SAGUACHE       NOT AVBL
$$

COZ035-036-038>040-130200-
...NORTHERN COLORADO FRONT RANGE...

CITY           SKY/WX    TMP DP  RH WIND       PRES   REMARKS
DENVER INTL AP CLOUDY    67  62  84 S3        30.28F
DMNS CITY PARK   N/A     69  59  70 E2        30.31R
AURORA         NOT AVBL
FRONT RANGE AP NOT AVBL
ERIE MUNI ARPT CLOUDY    68  60  75 N3        30.28S
BOULDER MUN AP CLOUDY    72  57  60 CALM      30.29F
CENTENNIAL     CLOUDY    63  58  83 S9        30.35R THUNDER
BROOMFIELD     PTSUNNY   70  57  64 W3        30.33S
FORT COLLINS   CLOUDY    73  61  64 SW3       30.27S
LONGMONT       CLOUDY    74  63  67 NW6       30.28F
$$

COZ041-046-047-076>085-087-088-130200-
...PIKES PEAK/PALMER DIVIDE AND SOUTHERN FOOTHILLS...

CITY           SKY/WX    TMP DP  RH WIND       PRES   REMARKS
COLO. SPRINGS  LGT RAIN  68  59  73 E6        30.35R
A. F. ACADEMY  NOT AVBL
ELLICOTT       CLOUDY    70  64  81 CALM      30.31
FALCON         LGT RAIN  67  61  79 CALM      30.39R
FORT CARSON    NOT AVBL
LIMON          LGT RAIN  76  58  53 NE9       30.27R
MONUMENT HILL  TSTM      55  54  94 N10       30.45R
TRINIDAD       LGT RAIN  67  57  70 NW26G32   30.26S
$$

COZ042>045-048>051-090-091-130200-
...NORTHEAST COLORADO...

CITY           SKY/WX    TMP DP  RH WIND       PRES   REMARKS
GREELEY ARPT   NOT AVBL
AKRON          PTSUNNY   78  60  53 N12       30.23R
BURLINGTON     MOSUNNY   80  62  54 N9        30.16S
WRAY             N/A     81  63  54 NE13      30.15R
STERLING       PTSUNNY   81  64  57 NE5       30.19R
HOLYOKE        CLOUDY    81  61  50 NE5       30.16S
FORT MORGAN    PTSUNNY   78  55  44 NE9       30.23R
$$

COZ086-089-092>099-130200-
...SOUTHEAST COLORADO...

CITY           SKY/WX    TMP DP  RH WIND       PRES   REMARKS
PUEBLO         CLOUDY    69  57  65 W26G35    30.22R
LA JUNTA       PTSUNNY   86  61  42 NE16      30.10R
LAMAR          MOSUNNY   88  60  38 NE15      30.03F
SPRINGFIELD      N/A     81  59  47 N17       30.12R
$$


USA.gov is the U.S. government's official web portal to all federal, state and local government web resources and services.